This demonstration page uses our WeatherBlox Daily Observations layout. Learn more.

40.92945, -100.16068

Hourly Observations for December 31, 2017

Temp ( °F °C ) Dew Point ( °F °C ) Humidity (%) Winds ( mph kmh ) Pressure ( in mb ) Visibility ( mi km ) Precip ( " mm )
12:15 am 00:15 Cloudy 1 -17.3 -5 -20.6 76 76 ENE 6 9 30.71 1040 10 16.09344 0 0
12:35 am 00:35 Cloudy 1 -17.5 -5 -20.8 76 76 ENE 6 9 30.71 1040 10 16.09344 0 0
12:55 am 00:55 Cloudy 1 -17.5 -5 -20.8 76 76 NNE 5 7 30.71 1040 10 16.09344 0 0
1:15 am 01:15 Cloudy 1 -17.5 -6 -21 74 74 NNE 6 9 30.74 1041 10 16.09344 0 0
1:35 am 01:35 Cloudy 1 -17.5 -6 -21 74 74 NNE 6 9 30.74 1041 10 16.09344 0 0
1:55 am 01:55 Cloudy 1 -17.5 -6 -21 74 74 NNE 6 9 30.74 1041 10 16.09344 0 0
2:15 am 02:15 Mostly Cloudy 0 -17.6 -6 -21.1 74 74 NNE 6 9 30.8 1043 10 16.09344 0 0
2:35 am 02:35 Partly Cloudy 1 -17.5 -6 -21 74 74 NE 7 11 30.8 1043 10 16.09344 0 0
2:55 am 02:55 Partly Cloudy 0 -17.6 -6 -21 75 75 NNE 6 9 30.8 1043 10 16.09344 0 0
3:15 am 03:15 Clear 0 -17.8 -6 -21.2 75 75 NE 6 9 30.83 1044 10 16.09344 0 0
3:35 am 03:35 Clear 0 -18 -7 -21.5 74 74 NNE 5 7 30.83 1044 10 16.09344 0 0
3:55 am 03:55 Clear -2 -18.7 -8 -22.1 75 75 NNE 5 7 30.83 1044 10 16.09344 0 0
4:15 am 04:15 Clear -3 -19.4 -9 -22.7 75 75 NNE 5 7 30.83 1044 10 16.09344 0 0
4:35 am 04:35 Clear -4 -20 -10 -23.4 74 74 N 3 6 30.86 1045 10 16.09344 0 0
4:55 am 04:55 Mostly Cloudy -5 -20.7 -11 -23.7 77 77 N 5 7 30.86 1045 10 16.09344 0 0
5:15 am 05:15 Cloudy -5 -20.5 -10 -23.5 77 77 N 6 9 30.86 1045 10 16.09344 0 0
5:35 am 05:35 Cloudy -3 -19.5 -9 -22.5 77 77 NNE 6 9 30.89 1046 10 16.09344 0 0
5:55 am 05:55 Cloudy -4 -19.8 -9 -23 76 76 NNE 3 6 30.89 1046 10 16.09344 0 0
6:15 am 06:15 Cloudy -4 -20 -9 -23 77 77 N 3 6 30.89 1046 10 16.09344 0 0
6:35 am 06:35 Cloudy -4 -19.9 -9 -23 76 76 NNE 5 7 30.92 1047 10 16.09344 0 0
6:55 am 06:55 Cloudy -4 -20 -10 -23.1 76 76 NE 5 7 30.92 1047 10 16.09344 0 0
7:15 am 07:15 Cloudy -4 -20 -10 -23.1 76 76 NNE 5 7 30.92 1047 10 16.09344 0 0
7:35 am 07:35 Cloudy -4 -20 -10 -23.5 74 74 NNE 5 7 30.95 1048 10 16.09344 0 0
7:55 am 07:55 Cloudy -4 -20 -10 -23.5 74 74 NNE 3 6 30.95 1048 10 16.09344 0 0
8:15 am 08:15 Cloudy -4 -19.8 -10 -23.3 74 74 Calm 30.95 1048 10 16.09344 0 0
8:35 am 08:35 Cloudy -3 -19.6 -10 -23.5 71 71 NNE 5 7 30.95 1048 10 16.09344 0 0
8:55 am 08:55 Cloudy -3 -19.7 -11 -23.7 71 71 NE 7 11 30.95 1048 10 16.09344 0 0
9:15 am 09:15 Cloudy -3 -19.6 -10 -23.6 71 71 NNE 6 9 30.98 1049 10 16.09344 0 0
9:35 am 09:35 Cloudy -3 -19.5 -10 -23.6 70 70 NNE 7 11 30.98 1049 10 16.09344 0 0
9:55 am 09:55 Cloudy -3 -19.5 -10 -23.6 70 70 NNE 8 13 30.98 1049 10 16.09344 0 0
10:15 am 10:15 Cloudy -3 -19.2 -10 -23.6 68 68 NNE 7 11 31.01 1050 10 16.09344 0 0
10:35 am 10:35 Cloudy -3 -19.2 -11 -23.8 67 67 NNE 7 11 31.01 1050 10 16.09344 0 0
10:55 am 10:55 Cloudy -2 -19 -10 -23.5 68 68 N 7 11 31.01 1050 10 16.09344 0 0
11:15 am 11:15 Cloudy -2 -19 -10 -23.5 68 68 N 8 13 31.01 1050 10 16.09344 0 0
11:35 am 11:35 Cloudy -2 -18.7 -10 -23.3 67 67 N 9 15 31.01 1050 10 16.09344 0 0
11:55 am 11:55 Cloudy -1 -18.5 -10 -23.2 67 67 N 9 15 31.01 1050 10 16.09344 0 0
12:15 pm 12:15 Mostly Cloudy -1 -18.5 -10 -23.2 67 67 NNW 7 11 31.01 1050 10 16.09344 0 0
12:35 pm 12:35 Partly Cloudy -1 -18.2 -10 -23.2 65 65 N 7 11 30.98 1049 10 16.09344 0 0
12:55 pm 12:55 Sunny 0 -18 -10 -23.1 65 65 N 6 9 30.98 1049 10 16.09344 0 0
1:15 pm 13:15 Sunny 0 -18 -10 -23.3 63 63 N 3 6 30.98 1049 10 16.09344 0 0
1:35 pm 13:35 Sunny 0 -17.7 -9 -22.8 65 65 N 3 6 30.95 1048 10 16.09344 0 0
1:55 pm 13:55 Sunny 0 -17.6 -9 -22.9 64 64 NNE 5 7 30.95 1048 10 16.09344 0 0
2:15 pm 14:15 Sunny 1 -17.5 -9 -23 62 62 NNE 3 6 30.95 1048 10 16.09344 0 0
2:35 pm 14:35 Sunny 1 -17.4 -9 -22.9 62 62 NNE 3 6 30.95 1048 10 16.09344 0 0
2:55 pm 14:55 Mostly Cloudy 1 -17.3 -9 -22.8 63 63 NNE 6 9 30.95 1048 10 16.09344 0 0
3:15 pm 15:15 Partly Cloudy 1 -17.2 -9 -22.6 63 63 NE 7 11 30.95 1048 10 16.09344 0 0
3:35 pm 15:35 Sunny 1 -17.3 -9 -22.6 64 64 NE 8 13 30.95 1048 10 16.09344 0 0
3:55 pm 15:55 Sunny 1 -17.5 -9 -22.8 64 64 NE 7 11 30.95 1048 10 16.09344 0 0
4:15 pm 16:15 Mostly Cloudy 1 -17.2 -9 -22.5 64 64 NNE 9 15 30.95 1048 10 16.09344 0 0
4:35 pm 16:35 Cloudy 1 -17.2 -9 -22.5 64 64 NE 6 9 30.95 1048 10 16.09344 0 0
4:55 pm 16:55 Partly Cloudy -1 -18.1 -9 -23 66 66 NE 3 6 30.98 1049 10 16.09344 0 0
5:15 pm 17:15 Sunny -2 -18.9 -10 -23.6 67 67 NE 3 6 31.01 1050 10 16.09344 0 0
5:35 pm 17:35 Clear -3 -19.7 -11 -24 69 69 ENE 5 7 31.01 1050 10 16.09344 0 0
6:15 pm 18:15 Clear -6 -21.2 -13 -25.2 70 70 NE 5 7 31.04 1051 10 16.09344 0 0
6:35 pm 18:35 Clear -7 -21.4 -14 -25.4 70 70 NE 5 7 31.04 1051 10 16.09344 0 0
6:55 pm 18:55 Clear -7 -21.5 -14 -25.4 71 71 Calm 31.04 1051 10 16.09344 0 0
7:15 pm 19:15 Clear -5 -20.8 -12 -24.2 74 74 NNE 5 7 31.04 1051 10 16.09344 0 0
7:35 pm 19:35 Clear -8 -22.4 -14 -25.7 75 75 NNE 3 6 31.07 1052 10 16.09344 0 0
7:55 pm 19:55 Clear -9 -22.6 -14 -25.7 76 76 NNE 3 6 31.07 1052 10 16.09344 0 0
8:15 pm 20:15 Clear -9 -22.9 -15 -26.1 75 75 Calm 31.07 1052 10 16.09344 0 0
8:35 pm 20:35 Clear -9 -22.8 -15 -26.1 75 75 WNW 3 6 31.07 1052 10 16.09344 0 0
8:55 pm 20:55 Clear -9 -22.5 -14 -25.6 76 76 Calm 31.07 1052 10 16.09344 0 0
9:15 pm 21:15 Clear -10 -23.3 -16 -26.6 74 74 W 3 6 31.1 1053 10 16.09344 0 0
9:35 pm 21:35 Clear -10 -23.1 -16 -26.4 74 74 WSW 3 6 31.1 1053 10 16.09344 0 0
9:55 pm 21:55 Clear -10 -23.2 -16 -26.4 75 75 W 3 6 31.1 1053 10 16.09344 0 0
10:15 pm 22:15 Clear -10 -23.3 -16 -26.4 76 76 W 3 6 31.1 1053 10 16.09344 0 0
10:35 pm 22:35 Mostly Cloudy -13 -25 -19 -28.1 75 75 WNW 3 6 31.1 1053 10 16.09344 0 0
10:55 pm 22:55 Cloudy -10 -23.3 -15 -26.2 77 77 WNW 3 6 31.1 1053 10 16.09344 0 0
11:20 pm 23:20 Cloudy -6 -21.3 -12 -24.5 76 76 Calm 31.07 1052 10 16.09344 0 0
11:35 pm 23:35 Cloudy -6 -21 -11 -24.1 76 76 Calm 31.07 1052 10 16.09344 0 0
11:55 pm 23:55 Cloudy -5 -20.5 -11 -23.7 76 76 Calm 31.04 1051 10 16.09344 0 0

Powered by AerisWeather